Location: Antioch Baptist Church
(32.6696°N, 85.7327°W)
Time: 11:58:59
(UTC+00:00)

Cosmos 2344 - Pass Details

Date: 14 July 2020
Orbit: 1249 x 2993 km, 63.3° (Epoch: 08 August)

Event Time Altitude Azimuth Distance (km) Brightness Sun altitude
Rises 03:14:59 0° 221° (SW) 4,444 6.3 -24.4°
Reaches altitude 10° 03:18:00 10° 225° (SW) 3,354 5.7 -24.8°
Maximum altitude 03:25:33 59° 303° (WNW) 1,423 4.0 -25.8°
Drops below altitude 10° 03:33:06 10° 23° (NNE) 3,335 6.1 -26.8°
Sets 03:36:06 0° 28° (NNE) 4,418 6.8 -27.1°
